Time,TemperatureF,DewpointF,PressureIn,WindDirection,WindDirectionDegrees,WindSpeedMPH,WindSpeedGustMPH,Humidity,HourlyPrecipIn,Conditions,Clouds,dailyrainin,SoftwareType,DateUTC
2013-03-15 00:32:00,38.0,24.0,-100.00,North,-999,-999.0,-999.0,55,-99.99,,,-99.99,,2013-03-15 06:32:00,
2013-03-15 01:32:00,37.0,25.0,-100.00,North,-999,-999.0,-999.0,60,-99.99,,,-99.99,,2013-03-15 07:32:00,
2013-03-15 01:42:00,37.0,25.0,-100.00,North,-999,-999.0,-999.0,60,-99.99,,,-99.99,,2013-03-15 07:42:00,
2013-03-15 01:52:00,37.0,25.0,-100.00,North,-999,-999.0,-999.0,60,-99.99,,,-99.99,,2013-03-15 07:52:00,
2013-03-15 02:00:00,34.0,25.0,-100.00,North,-999,-999.0,-999.0,69,-99.99,,,-99.99,,2013-03-15 08:00:00,
2013-03-15 02:33:00,34.0,25.0,-100.00,North,-999,-999.0,-999.0,69,-99.99,,,-99.99,,2013-03-15 08:33:00,
2013-03-15 03:33:00,33.0,25.0,-100.00,North,-999,-999.0,-999.0,72,-99.99,,,-99.99,,2013-03-15 09:33:00,
2013-03-15 04:33:00,32.0,25.0,-100.00,North,-999,-999.0,-999.0,74,-99.99,,,-99.99,,2013-03-15 10:33:00,
2013-03-15 05:32:00,34.0,24.0,-100.00,North,-999,-999.0,-999.0,67,-99.99,,,-99.99,,2013-03-15 11:32:00,
2013-03-15 05:42:00,34.0,24.0,-100.00,North,-999,-999.0,-999.0,67,-99.99,,,-99.99,,2013-03-15 11:42:00,
2013-03-15 05:52:00,34.0,24.0,-100.00,North,-999,-999.0,-999.0,67,-99.99,,,-99.99,,2013-03-15 11:52:00,
2013-03-15 06:00:00,34.0,26.0,-100.00,North,-999,-999.0,-999.0,71,-99.99,,,-99.99,,2013-03-15 12:00:00,
2013-03-15 06:32:00,34.0,26.0,-100.00,North,-999,-999.0,-999.0,71,-99.99,,,-99.99,,2013-03-15 12:32:00,
2013-03-15 06:42:00,34.0,26.0,-100.00,North,-999,-999.0,-999.0,71,-99.99,,,-99.99,,2013-03-15 12:42:00,
2013-03-15 06:52:00,34.0,26.0,-100.00,North,-999,-999.0,-999.0,71,-99.99,,,-99.99,,2013-03-15 12:52:00,
2013-03-15 07:00:00,34.0,24.0,-100.00,North,-999,-999.0,-999.0,68,-99.99,,,-99.99,,2013-03-15 13:00:00,
2013-03-15 07:32:00,34.0,24.0,-100.00,North,-999,-999.0,-999.0,68,-99.99,,,-99.99,,2013-03-15 13:32:00,
2013-03-15 07:42:00,34.0,24.0,-100.00,North,-999,-999.0,-999.0,68,-99.99,,,-99.99,,2013-03-15 13:42:00,
2013-03-15 07:52:00,34.0,24.0,-100.00,North,-999,-999.0,-999.0,68,-99.99,,,-99.99,,2013-03-15 13:52:00,
2013-03-15 08:00:00,32.0,24.0,-100.00,North,-999,-999.0,-999.0,70,-99.99,,,-99.99,,2013-03-15 14:00:00,
2013-03-15 08:33:00,32.0,24.0,-100.00,North,-999,-999.0,-999.0,70,-99.99,,,-99.99,,2013-03-15 14:33:00,
2013-03-15 08:42:00,32.0,24.0,-100.00,North,-999,-999.0,-999.0,70,-99.99,,,-99.99,,2013-03-15 14:42:00,
2013-03-15 08:52:00,32.0,24.0,-100.00,North,-999,-999.0,-999.0,70,-99.99,,,-99.99,,2013-03-15 14:52:00,
2013-03-15 09:00:00,36.0,25.0,-100.00,North,-999,-999.0,-999.0,64,-99.99,,,-99.99,,2013-03-15 15:00:00,
2013-03-15 09:33:00,36.0,25.0,-100.00,North,-999,-999.0,-999.0,64,-99.99,,,-99.99,,2013-03-15 15:33:00,
2013-03-15 09:43:00,36.0,25.0,-100.00,North,-999,-999.0,-999.0,64,-99.99,,,-99.99,,2013-03-15 15:43:00,
2013-03-15 09:53:00,36.0,25.0,-100.00,North,-999,-999.0,-999.0,64,-99.99,,,-99.99,,2013-03-15 15:53:00,
2013-03-15 10:00:00,51.0,20.0,-100.00,North,-999,-999.0,-999.0,29,-99.99,,,-99.99,,2013-03-15 16:00:00,
2013-03-15 10:32:00,51.0,20.0,-100.00,North,-999,-999.0,-999.0,29,-99.99,,,-99.99,,2013-03-15 16:32:00,
2013-03-15 10:42:00,51.0,20.0,-100.00,North,-999,-999.0,-999.0,29,-99.99,,,-99.99,,2013-03-15 16:42:00,
2013-03-15 10:52:00,51.0,20.0,-100.00,North,-999,-999.0,-999.0,29,-99.99,,,-99.99,,2013-03-15 16:52:00,
2013-03-15 11:00:00,51.0,20.0,-100.00,North,-999,-999.0,-999.0,29,-99.99,,,-99.99,,2013-03-15 17:00:00,
2013-03-15 11:32:00,51.0,20.0,-100.00,North,-999,-999.0,-999.0,29,-99.99,,,-99.99,,2013-03-15 17:32:00,
2013-03-15 11:42:00,51.0,20.0,-100.00,North,-999,-999.0,-999.0,29,-99.99,,,-99.99,,2013-03-15 17:42:00,
2013-03-15 11:52:00,51.0,20.0,-100.00,North,-999,-999.0,-999.0,29,-99.99,,,-99.99,,2013-03-15 17:52:00,
2013-03-15 12:00:00,53.0,16.0,-100.00,North,-999,-999.0,-999.0,23,-99.99,,,-99.99,,2013-03-15 18:00:00,
2013-03-15 12:32:00,53.0,16.0,-100.00,North,-999,-999.0,-999.0,23,-99.99,,,-99.99,,2013-03-15 18:32:00,
2013-03-15 12:42:00,53.0,16.0,-100.00,North,-999,-999.0,-999.0,23,-99.99,,,-99.99,,2013-03-15 18:42:00,
2013-03-15 12:52:00,53.0,16.0,-100.00,North,-999,-999.0,-999.0,23,-99.99,,,-99.99,,2013-03-15 18:52:00,
2013-03-15 13:00:00,50.0,14.0,-100.00,North,-999,-999.0,-999.0,23,-99.99,,,-99.99,,2013-03-15 19:00:00,
2013-03-15 13:32:00,50.0,14.0,-100.00,North,-999,-999.0,-999.0,23,-99.99,,,-99.99,,2013-03-15 19:32:00,
2013-03-15 13:42:00,50.0,14.0,-100.00,North,-999,-999.0,-999.0,23,-99.99,,,-99.99,,2013-03-15 19:42:00,
2013-03-15 13:52:00,50.0,14.0,-100.00,North,-999,-999.0,-999.0,23,-99.99,,,-99.99,,2013-03-15 19:52:00,
2013-03-15 14:00:00,53.0,15.0,-100.00,North,-999,-999.0,-999.0,22,-99.99,,,-99.99,,2013-03-15 20:00:00,
2013-03-15 14:32:00,53.0,15.0,-100.00,North,-999,-999.0,-999.0,22,-99.99,,,-99.99,,2013-03-15 20:32:00,
2013-03-15 14:42:00,53.0,15.0,-100.00,North,-999,-999.0,-999.0,22,-99.99,,,-99.99,,2013-03-15 20:42:00,
2013-03-15 14:52:00,53.0,15.0,-100.00,North,-999,-999.0,-999.0,22,-99.99,,,-99.99,,2013-03-15 20:52:00,
2013-03-15 15:00:00,51.0,14.0,-100.00,North,-999,-999.0,-999.0,23,-99.99,,,-99.99,,2013-03-15 21:00:00,
2013-03-15 15:33:00,51.0,14.0,-100.00,North,-999,-999.0,-999.0,23,-99.99,,,-99.99,,2013-03-15 21:33:00,
2013-03-15 15:43:00,51.0,14.0,-100.00,North,-999,-999.0,-999.0,23,-99.99,,,-99.99,,2013-03-15 21:43:00,
2013-03-15 15:52:00,51.0,14.0,-100.00,North,-999,-999.0,-999.0,23,-99.99,,,-99.99,,2013-03-15 21:52:00,
2013-03-15 16:00:00,51.0,16.0,-100.00,North,-999,-999.0,-999.0,24,-99.99,,,-99.99,,2013-03-15 22:00:00,
2013-03-15 16:33:00,51.0,16.0,-100.00,North,-999,-999.0,-999.0,24,-99.99,,,-99.99,,2013-03-15 22:33:00,
2013-03-15 16:42:00,51.0,16.0,-100.00,North,-999,-999.0,-999.0,24,-99.99,,,-99.99,,2013-03-15 22:42:00,
2013-03-15 16:52:00,51.0,16.0,-100.00,North,-999,-999.0,-999.0,24,-99.99,,,-99.99,,2013-03-15 22:52:00,
2013-03-15 17:00:00,51.0,19.0,-100.00,North,-999,-999.0,-999.0,27,-99.99,,,-99.99,,2013-03-15 23:00:00,
2013-03-15 17:32:00,51.0,19.0,-100.00,North,-999,-999.0,-999.0,27,-99.99,,,-99.99,,2013-03-15 23:32:00,
2013-03-15 17:42:00,51.0,19.0,-100.00,North,-999,-999.0,-999.0,27,-99.99,,,-99.99,,2013-03-15 23:42:00,
2013-03-15 17:53:00,51.0,19.0,-100.00,North,-999,-999.0,-999.0,27,-99.99,,,-99.99,,2013-03-15 23:53:00,
2013-03-15 18:00:00,48.0,16.0,-100.00,North,-999,-999.0,-999.0,27,-99.99,,,-99.99,,2013-03-16 00:00:00,
2013-03-15 18:32:00,48.0,16.0,-100.00,North,-999,-999.0,-999.0,27,-99.99,,,-99.99,,2013-03-16 00:32:00,
2013-03-15 18:42:00,48.0,16.0,-100.00,North,-999,-999.0,-999.0,27,-99.99,,,-99.99,,2013-03-16 00:42:00,
2013-03-15 18:52:00,48.0,16.0,-100.00,North,-999,-999.0,-999.0,27,-99.99,,,-99.99,,2013-03-16 00:52:00,
2013-03-15 19:00:00,45.0,16.0,-100.00,North,-999,-999.0,-999.0,30,-99.99,,,-99.99,,2013-03-16 01:00:00,
2013-03-15 19:32:00,45.0,16.0,-100.00,North,-999,-999.0,-999.0,30,-99.99,,,-99.99,,2013-03-16 01:32:00,
2013-03-15 19:42:00,45.0,16.0,-100.00,North,-999,-999.0,-999.0,30,-99.99,,,-99.99,,2013-03-16 01:42:00,
2013-03-15 19:52:00,45.0,16.0,-100.00,North,-999,-999.0,-999.0,30,-99.99,,,-99.99,,2013-03-16 01:52:00,
2013-03-15 20:00:00,38.0,17.0,-100.00,North,-999,-999.0,-999.0,42,-99.99,,,-99.99,,2013-03-16 02:00:00,
2013-03-15 20:33:00,38.0,17.0,-100.00,North,-999,-999.0,-999.0,42,-99.99,,,-99.99,,2013-03-16 02:33:00,
2013-03-15 20:43:00,38.0,17.0,-100.00,North,-999,-999.0,-999.0,42,-99.99,,,-99.99,,2013-03-16 02:43:00,
2013-03-15 20:52:00,38.0,17.0,-100.00,North,-999,-999.0,-999.0,42,-99.99,,,-99.99,,2013-03-16 02:52:00,
2013-03-15 21:00:00,34.0,23.0,-100.00,North,-999,-999.0,-999.0,63,-99.99,,,-99.99,,2013-03-16 03:00:00,
2013-03-15 21:33:00,34.0,23.0,-100.00,North,-999,-999.0,-999.0,63,-99.99,,,-99.99,,2013-03-16 03:33:00,
2013-03-15 21:43:00,34.0,23.0,-100.00,North,-999,-999.0,-999.0,63,-99.99,,,-99.99,,2013-03-16 03:43:00,
2013-03-15 21:53:00,34.0,23.0,-100.00,North,-999,-999.0,-999.0,63,-99.99,,,-99.99,,2013-03-16 03:53:00,
2013-03-15 22:00:00,33.0,23.0,-100.00,North,-999,-999.0,-999.0,66,-99.99,,,-99.99,,2013-03-16 04:00:00,
2013-03-15 22:33:00,33.0,23.0,-100.00,North,-999,-999.0,-999.0,66,-99.99,,,-99.99,,2013-03-16 04:33:00,
2013-03-15 22:43:00,33.0,23.0,-100.00,North,-999,-999.0,-999.0,66,-99.99,,,-99.99,,2013-03-16 04:43:00,
2013-03-15 22:53:00,33.0,23.0,-100.00,North,-999,-999.0,-999.0,66,-99.99,,,-99.99,,2013-03-16 04:53:00,
2013-03-15 23:32:00,31.0,23.0,-100.00,North,-999,-999.0,-999.0,72,-99.99,,,-99.99,,2013-03-16 05:32:00,